Terug naar catalogus

STARLINK-11632

ActiefCommunicatieVLEO
NORAD 63108·PAYLOAD·🇺🇸 United States

Gelanceerd Feb 27, 2025 vanaf Cape Canaveral Space Force Station

Loading…

Volgende Passages (komende 24 uur)

TLE

VersSource: CelesTrak SupGP

Epoch: Sep 14, 2026, 22:49 UTC

1 63108C 25039E   26257.95118056 -.00067006  00000+0 -52039-3 0  2573
2 63108  43.0005 176.1774 0001555 258.7915 325.2559 15.70873833    15

Volg STARLINK-11632 in realtime met AllMySat

Download on the App Store